Bourg, LA

5:14 PM CST on December 07, 2016 (GMT -0600)
Houma-terrebonne

Weather History for KHUM - May, 2013

Change the Weather History Date:

Wednesday, May 22, 2013

  Actual Average Record
Temperature  
Mean Temperature 74 °F -  
Max Temperature 80 °F 84 °F 92 °F (1956)
Min Temperature 69 °F 66 °F 50 °F (1954)
Cooling Degree Days 10    
Growing Degree Days 24 (Base 50)    
Moisture  
Dew Point 70 °F    
Average Humidity 83    
Maximum Humidity 92    
Minimum Humidity 73    
Precipitation  
Precipitation 0.00 in - - ()
Sea Level Pressure  
Sea Level Pressure 29.93 in    
Wind  
Wind Speed 6 mph (ESE)    
Max Wind Speed 23 mph    
Max Gust Speed -    
Visibility 7 miles    
Events Rain , Thunderstorm    
Averages and records for this station are not official NWS values.
T = Trace of Precipitation, MM = Missing Value Source: NWS Daily Summary

Daily Weather History Graph

Daily Weather History Graph

Search for Another Location

Airport or City:

Trip Planner

Search our weather history database for the weather conditions in past years. The results will help you decide how hot, cold, wet, or windy it might be!

Date:

Astronomy

May. 22, 2013 Rise Set
Actual Time 6:06 AM CDT 7:52 PM CDT
Civil Twilight 5:39 AM CDT 8:19 PM CDT
Nautical Twilight 5:08 AM CDT 8:51 PM CDT
Astronomical Twilight 4:34 AM CDT 9:24 PM CDT
Moon 5:24 PM CDT (5/22) 3:58 AM CDT (5/22)
Length of Visible Light 14h 39m
Length of Day
13h 46m
Waxing Gibbous, 91% of the Moon is Illuminated
May 22
Waxing Gibbous
May 24
Full
May 31
Last Quarter
Jun 8
New
Jun 16
First Quarter

Hourly Weather History & Observations

Time (CDT) Temp. Heat Index Dew Point Humidity Pressure Visibility Wind Dir Wind Speed Gust Speed Precip Events Conditions
12:15 AM 78.1 °F - 70.9 °F 78% 29.91 in 10.0 mi SE 8.1 mph - N/A   Overcast
12:35 AM 78.1 °F - 71.1 °F 79% 29.91 in 7.0 mi SE 9.2 mph - N/A   Overcast
12:55 AM 78.3 °F - 70.7 °F 77% 29.92 in 7.0 mi SE 8.1 mph - N/A   Overcast
1:15 AM 77.9 °F - 70.9 °F 79% 29.92 in 10.0 mi SE 5.8 mph - N/A   Mostly Cloudy
1:35 AM 77.7 °F - 70.9 °F 79% 29.91 in 7.0 mi SE 6.9 mph - N/A   Mostly Cloudy
1:55 AM 77.5 °F - 71.2 °F 81% 29.91 in 10.0 mi SE 4.6 mph - N/A   Mostly Cloudy
2:15 AM 77.5 °F - 71.6 °F 82% 29.90 in 7.0 mi Calm Calm - N/A   Overcast
2:35 AM 77.0 °F - 71.1 °F 82% 29.90 in 7.0 mi ESE 3.5 mph - N/A   Mostly Cloudy
2:55 AM 76.3 °F - 71.2 °F 84% 29.88 in 10.0 mi ESE 6.9 mph - N/A   Mostly Cloudy
3:15 AM 76.6 °F - 71.1 °F 83% 29.88 in 7.0 mi SE 5.8 mph - N/A   Mostly Cloudy
3:35 AM 77.0 °F - 71.2 °F 82% 29.89 in 7.0 mi SE 9.2 mph - N/A   Mostly Cloudy
3:55 AM 77.0 °F - 71.2 °F 82% 29.88 in 7.0 mi SE 5.8 mph - N/A   Mostly Cloudy
4:15 AM 77.0 °F - 71.1 °F 82% 29.88 in 10.0 mi SE 5.8 mph - N/A   Mostly Cloudy
4:35 AM 77.0 °F - 71.2 °F 82% 29.89 in 10.0 mi SSE 4.6 mph - N/A   Overcast
4:55 AM 77.2 °F - 71.6 °F 83% 29.89 in 10.0 mi SE 5.8 mph - N/A   Overcast
5:15 AM 77.4 °F - 71.2 °F 81% 29.90 in 7.0 mi Calm Calm - N/A   Overcast
5:35 AM 77.0 °F - 71.1 °F 82% 29.90 in 7.0 mi SSE 3.5 mph - N/A   Overcast
5:48 AM 77.0 °F - 71.6 °F 83% 29.91 in 6.0 mi SE 9.2 mph - N/A   Mostly Cloudy
5:55 AM 77.0 °F - 71.4 °F 83% 29.90 in 10.0 mi SSE 3.5 mph - N/A   Overcast
6:48 AM 75.2 °F - 71.6 °F 89% 29.92 in 7.0 mi SE 9.2 mph - N/A   Mostly Cloudy
7:50 AM 77.0 °F - 71.6 °F 83% 29.97 in 6.0 mi NNE 6.9 mph - N/A   Mostly Cloudy
8:20 AM 78.8 °F - 71.6 °F 78% 29.97 in 6.0 mi ENE 6.9 mph - N/A   Mostly Cloudy
8:51 AM 80.6 °F 84.6 °F 71.6 °F 74% 29.98 in 6.0 mi ENE 10.4 mph - N/A   Mostly Cloudy
9:30 AM 71.6 °F - 62.6 °F 73% 30.03 in 6.0 mi North 6.9 mph - N/A Rain , Thunderstorm Thunderstorms and Rain
9:55 AM 69.8 °F - 64.4 °F 83% 30.01 in 3.0 mi North 20.7 mph - N/A Rain , Thunderstorm Thunderstorms and Rain
10:48 AM 69.8 °F - 64.4 °F 83% 29.95 in 5.0 mi ESE 23.0 mph - N/A Rain , Thunderstorm Light Thunderstorms and Rain
11:50 AM 75.2 °F - 69.8 °F 83% 29.96 in 7.0 mi ESE 11.5 mph - N/A   Scattered Clouds
12:51 PM 78.8 °F - 69.8 °F 74% 29.98 in 7.0 mi ESE 11.5 mph - N/A   Mostly Cloudy
1:50 PM 78.8 °F - 69.8 °F 74% 29.93 in 7.0 mi ESE 16.1 mph - N/A   Mostly Cloudy
2:50 PM 73.4 °F - 69.8 °F 88% 29.93 in 7.0 mi WNW 9.2 mph - N/A   Mostly Cloudy
3:50 PM 73.4 °F - 69.8 °F 88% 29.93 in 7.0 mi WNW 6.9 mph - N/A Rain Light Rain
4:50 PM 75.2 °F - 69.8 °F 83% 29.93 in 7.0 mi North 5.8 mph - N/A   Scattered Clouds
5:50 PM 77.0 °F - 69.8 °F 78% 29.92 in 7.0 mi ENE 9.2 mph - N/A   Overcast
6:50 PM 77.0 °F - 69.8 °F 78% 29.93 in 7.0 mi NNE 5.8 mph - N/A   Scattered Clouds
7:15 PM 76.6 °F - 69.4 °F 78% 29.93 in 10.0 mi Calm Calm - N/A   Mostly Cloudy
7:35 PM 76.1 °F - 69.3 °F 79% 29.93 in 7.0 mi NE 3.5 mph - N/A   Scattered Clouds
7:55 PM 75.2 °F - 69.4 °F 82% 29.94 in 7.0 mi Calm Calm - N/A   Scattered Clouds
8:15 PM 75.2 °F - 69.6 °F 83% 29.94 in 10.0 mi Calm Calm - N/A   Mostly Cloudy
8:35 PM 74.3 °F - 69.8 °F 86% 29.94 in 10.0 mi ENE 3.5 mph - N/A   Scattered Clouds
8:55 PM 74.3 °F - 69.8 °F 86% 29.94 in 10.0 mi Calm Calm - N/A   Clear
9:15 PM 73.0 °F - 69.3 °F 88% 29.94 in 7.0 mi Calm Calm - N/A   Clear
9:35 PM 72.7 °F - 69.3 °F 89% 29.96 in 7.0 mi Calm Calm - N/A   Clear
9:55 PM 72.3 °F - 69.4 °F 91% 29.96 in 4.0 mi Calm Calm - N/A   Scattered Clouds
10:15 PM 72.0 °F - 69.3 °F 91% 29.97 in 5.0 mi Calm Calm - N/A   Mostly Cloudy
10:35 PM 71.6 °F - 68.7 °F 91% 29.97 in 7.0 mi East 3.5 mph - N/A   Scattered Clouds
10:55 PM 71.6 °F - 68.9 °F 91% 29.97 in 5.0 mi Calm Calm - N/A   Clear
11:15 PM 71.8 °F - 69.1 °F 91% 29.97 in 4.0 mi Calm Calm - N/A   Clear
11:35 PM 71.6 °F - 68.9 °F 91% 29.97 in 3.0 mi Calm Calm - N/A   Clear
11:55 PM 71.6 °F - 69.1 °F 92% 29.97 in 3.0 mi Calm Calm - N/A   Clear